Time,TemperatureF,DewpointF,PressureIn,WindDirection,WindDirectionDegrees,WindSpeedMPH,WindSpeedGustMPH,Humidity,HourlyPrecipIn,Conditions,Clouds,dailyrainin,SoftwareType,DateUTC
2013-08-11 00:00:00,51.0,-99.9,-100.00,SW,228,77.0,-999.0,-999,-99.99,,,0.00,,2013-08-11 06:00:00,
2013-08-11 00:58:00,51.0,-99.9,-100.00,SW,228,77.0,-999.0,-999,-99.99,,,0.00,,2013-08-11 06:58:00,
2013-08-11 01:00:00,53.0,-99.9,-100.00,North,-999,-999.0,-999.0,-999,-99.99,,,0.00,,2013-08-11 07:00:00,
2013-08-11 02:00:00,57.0,-99.9,-100.00,SW,222,81.0,-999.0,-999,-99.99,,,-99.99,,2013-08-11 08:00:00,
2013-08-11 03:00:00,57.0,-99.9,-100.00,South,178,66.0,-999.0,-999,-99.99,,,0.00,,2013-08-11 09:00:00,
2013-08-11 04:00:00,57.0,-99.9,-100.00,South,174,60.0,-999.0,-999,-99.99,,,0.00,,2013-08-11 10:00:00,
2013-08-11 04:59:00,57.0,-99.9,-100.00,South,174,60.0,-999.0,-999,-99.99,,,0.00,,2013-08-11 10:59:00,
2013-08-11 05:00:00,56.0,-99.9,-100.00,South,177,62.0,-999.0,-999,-99.99,,,0.00,,2013-08-11 11:00:00,
2013-08-11 06:00:00,57.0,-99.9,-100.00,South,182,63.0,-999.0,-999,-99.99,,,0.00,,2013-08-11 12:00:00,
2013-08-11 06:57:00,57.0,-99.9,-100.00,South,182,63.0,-999.0,-999,-99.99,,,0.00,,2013-08-11 12:57:00,
2013-08-11 07:59:00,56.0,-99.9,-100.00,South,182,64.0,-999.0,-999,-99.99,,,0.00,,2013-08-11 13:59:00,
2013-08-11 08:00:00,58.0,-99.9,-100.00,South,182,64.0,-999.0,-999,-99.99,,,0.00,,2013-08-11 14:00:00,
2013-08-11 08:58:00,58.0,-99.9,-100.00,South,182,64.0,-999.0,-999,-99.99,,,0.00,,2013-08-11 14:58:00,
2013-08-11 09:00:00,64.0,-99.9,-100.00,South,173,68.0,-999.0,-999,-99.99,,,0.00,,2013-08-11 15:00:00,
2013-08-11 10:00:00,69.0,-99.9,-100.00,SE,137,53.0,-999.0,-999,-99.99,,,0.00,,2013-08-11 16:00:00,
2013-08-11 11:00:00,64.0,-99.9,-100.00,SE,125,48.0,-999.0,-999,-99.99,,,0.00,,2013-08-11 17:00:00,
2013-08-11 11:59:00,64.0,-99.9,-100.00,SE,125,48.0,-999.0,-999,-99.99,,,0.00,,2013-08-11 17:59:00,
2013-08-11 12:00:00,67.0,-99.9,-100.00,SE,138,52.0,-999.0,-999,-99.99,,,0.00,,2013-08-11 18:00:00,
2013-08-11 12:58:00,67.0,-99.9,-100.00,SE,138,52.0,-999.0,-999,-99.99,,,0.00,,2013-08-11 18:58:00,
2013-08-11 13:00:00,64.0,-99.9,-100.00,SE,126,49.0,-999.0,-999,-99.99,,,-99.99,,2013-08-11 19:00:00,
2013-08-11 14:00:00,61.0,-99.9,-100.00,SSE,168,63.0,-999.0,-999,-99.99,,,0.00,,2013-08-11 20:00:00,
2013-08-11 15:00:00,63.0,-99.9,-100.00,South,187,68.0,-999.0,-999,-99.99,,,0.00,,2013-08-11 21:00:00,
2013-08-11 15:51:00,63.0,-99.9,-100.00,South,187,68.0,-999.0,-999,-99.99,,,0.00,,2013-08-11 21:51:00,
2013-08-11 16:00:00,64.0,-99.9,-100.00,South,170,65.0,-999.0,-999,-99.99,,,0.00,,2013-08-11 22:00:00,
2013-08-11 16:59:00,64.0,-99.9,-100.00,South,170,65.0,-999.0,-999,-99.99,,,0.00,,2013-08-11 22:59:00,
2013-08-11 17:00:00,65.0,-99.9,-100.00,North,-999,-999.0,-999.0,-999,-99.99,,,0.00,,2013-08-11 23:00:00,
2013-08-11 18:00:00,65.0,-99.9,-100.00,SE,139,49.0,-999.0,-999,-99.99,,,0.00,,2013-08-12 00:00:00,
2013-08-11 18:59:00,65.0,-99.9,-100.00,SE,139,49.0,-999.0,-999,-99.99,,,0.00,,2013-08-12 00:59:00,
2013-08-11 19:00:00,61.0,-99.9,-100.00,North,-999,-999.0,-999.0,-999,-99.99,,,0.00,,2013-08-12 01:00:00,
2013-08-11 19:59:00,61.0,-99.9,-100.00,North,-999,-999.0,-999.0,-999,-99.99,,,0.00,,2013-08-12 01:59:00,
2013-08-11 20:00:00,58.0,-99.9,-100.00,SSW,197,73.0,-999.0,-999,-99.99,,,0.00,,2013-08-12 02:00:00,
2013-08-11 21:00:00,55.0,-99.9,-100.00,SW,229,81.0,-999.0,-999,-99.99,,,0.00,,2013-08-12 03:00:00,
2013-08-11 22:00:00,56.0,-99.9,-100.00,SSW,202,76.0,-999.0,-999,-99.99,,,0.00,,2013-08-12 04:00:00,
2013-08-11 22:53:00,56.0,-99.9,-100.00,SSW,202,76.0,-999.0,-999,-99.99,,,0.00,,2013-08-12 04:53:00,
2013-08-11 23:00:00,57.0,-99.9,-100.00,SSW,201,70.0,-999.0,-999,-99.99,,,0.00,,2013-08-12 05:00:00,
2013-08-11 23:43:00,57.0,-99.9,-100.00,SSW,201,70.0,-999.0,-999,-99.99,,,0.00,,2013-08-12 05:43:00,
2013-08-11 23:52:00,57.0,-99.9,-100.00,SSW,201,70.0,-999.0,-999,-99.99,,,0.00,,2013-08-12 05:52:00,